Regional Weather Roundup
Issued by NWS Spokane, WA

Home | Current Version | Previous Version | Text Only | Print | Product List | Glossary On
Versions: 1 2 3 4 5 6 7 8 9 10 11 12 13 14 15 16 17 18 19 20 21 22 23 24 25 26 27 28 29 30 31 32 33 34 35 36 37 38 39 40 41 42 43 44 45 46 47 48 49 50
000
NZUS01 KOTX 161510
RWROTX
EASTERN WASHINGTON/NORTHERN IDAHO ROUNDUP
NATIONAL WEATHER SERVICE, SPOKANE WA
800 AM PDT WED APR 16 2014

Note: "fair" indicated few or no clouds below 12,000 feet with no
significant weather and/or obstructions to visibility.

...NORTHEAST WASHINGTON AND NORTHERN IDAHO PANHANDLE...

CITY           SKY/WX    TMP DP  RH WIND       PRES   REMARKS
SPOKANE INTL   CLOUDY    41  29  62 S10       30.01R
SPOKANE DOWNTO CLOUDY    44  29  55 SW7       30.03R
COEUR D ALENE  CLOUDY    41  30  65 S9        30.03R
DEER PARK      CLOUDY    39  30  70 SE7       30.01R
SANDPOINT      CLOUDY    37  36  93 S5        30.00S

...SOUTHEAST WASHINGTON AND SOUTHERN IDAHO PANHANDLE...

CITY           SKY/WX    TMP DP  RH WIND       PRES   REMARKS
WALLA WALLA    CLOUDY    51  36  56 S13       30.08S
PULLMAN/MOSCOW PTSUNNY   41  31  67 CALM      30.06S
LEWISTON       CLOUDY    46  29  51 NE3       30.07R
LOWELL           N/A     40  36  86 CALM      30.13R

...COLUMBIA BASIN...

CITY           SKY/WX    TMP DP  RH WIND       PRES   REMARKS
EPHRATA        CLOUDY    49  37  63 SW13      30.00S
MOSES LAKE     CLOUDY    50  38  63 S9        30.02S
TRI CITIES     CLOUDY    52  39  61 SW3       30.07S
HERMISTON      CLOUDY    53  38  56 SW16      30.07S
PENDLETON      CLOUDY    46  34  62 S8        30.08R

...EAST SLOPES CASCADES...

CITY           SKY/WX    TMP DP  RH WIND       PRES   REMARKS
THE DALLES     CLOUDY    51  41  68 W8        30.10R
YAKIMA         CLOUDY    49  35  58 W5        30.04S
ELLENSBURG     CLOUDY    45  37  73 W9        30.02S
WENATCHEE      CLOUDY    48  33  56 N3        30.00S
OMAK           CLOUDY    47  27  45 N3        29.99S

...SOUTHERN BRITISH COLUMBIA...

CITY           SKY/WX    TMP DP  RH WIND       PRES   REMARKS
PENTICTON      CLOUDY    48  34  57 S12       29.98F
CASTLEGAR      PTSUNNY   37  30  75 CALM      30.00F
CRANBROOK      PTSUNNY   32  25  74 CALM      29.94S

...WESTERN MONTANA...

CITY           SKY/WX    TMP DP  RH WIND       PRES   REMARKS
MISSOULA       CLOUDY    32  31  96 CALM      30.03S

...NEIGHBORING CITIES...

CITY           SKY/WX    TMP DP  RH WIND       PRES   REMARKS
SEATTLE        LGT RAIN  48  45  89 S10       30.07S
CALGARY        SNOWSHWR  27  23  86 N7        30.01S VSB 3/4 WCI  19



USA.gov is the U.S. government's official web portal to all federal, state and local government web resources and services.